Location: ???????
(54.6339°N, 39.4245°E)
Time: 07:14:21
(UTC+00:00)

ATLAS 3B R/B - Pass Details

Date: 19 May 2025
Orbit: 935 x 1258 km, 63.8° (Epoch: 15 June)

Event Time Altitude Azimuth Distance (km) Brightness Sun altitude
Exits shadow 19:42:58 16° 160° (SSE) 2,649 4.1 -12.6°
Maximum altitude 19:47:29 29° 113° (ESE) 2,057 3.8 -12.9°
Drops below altitude 10° 19:53:55 10° 57° (ENE) 3,228 5.4 -13.2°
Sets 19:57:08 0° 47° (NE) 4,215 6.1 -13.4°
